TimePST,TemperatureF,Dew PointF,Humidity,Sea Level PressureIn,VisibilityMPH,Wind Direction,Wind SpeedMPH,Gust SpeedMPH,PrecipitationIn,Events,Conditions,WindDirDegrees,DateUTC
12:53 AM,48.0,45.0,89,30.23,8.0,Calm,Calm,-,N/A,,Overcast,0,2012-11-14 08:53:00
1:13 AM,46.4,44.6,93,30.22,9.0,Calm,Calm,-,N/A,,Overcast,0,2012-11-14 09:13:00
1:51 AM,46.4,44.6,93,30.22,9.0,ESE,3.5,-,N/A,,Overcast,110,2012-11-14 09:51:00
1:53 AM,46.9,44.1,90,30.23,9.0,ESE,3.5,-,N/A,,Overcast,110,2012-11-14 09:53:00
2:35 AM,48.2,44.6,87,30.23,10.0,Calm,Calm,-,N/A,,Overcast,0,2012-11-14 10:35:00
2:53 AM,46.9,44.1,90,30.23,8.0,Calm,Calm,-,N/A,,Overcast,0,2012-11-14 10:53:00
3:53 AM,46.0,43.0,89,30.22,10.0,Calm,Calm,-,N/A,,Overcast,0,2012-11-14 11:53:00
4:53 AM,46.0,42.1,86,30.23,10.0,Calm,Calm,-,N/A,,Overcast,0,2012-11-14 12:53:00
5:53 AM,45.0,42.1,90,30.24,10.0,Calm,Calm,-,N/A,,Overcast,0,2012-11-14 13:53:00
6:53 AM,43.0,41.0,93,30.26,10.0,SW,4.6,-,N/A,,Overcast,230,2012-11-14 14:53:00
7:33 AM,41.0,39.2,93,30.27,9.0,Calm,Calm,-,N/A,,Mostly Cloudy,0,2012-11-14 15:33:00
7:45 AM,42.8,39.2,87,30.27,10.0,ESE,4.6,-,N/A,,Mostly Cloudy,110,2012-11-14 15:45:00
7:53 AM,43.0,39.9,89,30.28,10.0,East,3.5,-,N/A,,Mostly Cloudy,90,2012-11-14 15:53:00
8:53 AM,48.0,43.0,83,30.29,10.0,Calm,Calm,-,N/A,,Overcast,0,2012-11-14 16:53:00
9:15 AM,46.4,42.8,87,30.29,10.0,Calm,Calm,-,N/A,,Scattered Clouds,0,2012-11-14 17:15:00
9:53 AM,48.9,43.0,80,30.29,10.0,Calm,Calm,-,N/A,,Scattered Clouds,0,2012-11-14 17:53:00
10:34 AM,50.0,44.6,82,30.30,10.0,South,4.6,-,N/A,,Mostly Cloudy,180,2012-11-14 18:34:00
10:53 AM,51.1,45.0,80,30.30,10.0,South,3.5,-,N/A,,Mostly Cloudy,170,2012-11-14 18:53:00
11:01 AM,51.8,44.6,76,30.29,10.0,Calm,Calm,-,N/A,,Scattered Clouds,0,2012-11-14 19:01:00
11:53 AM,54.0,45.0,72,30.28,10.0,Variable,5.8,-,N/A,,Clear,0,2012-11-14 19:53:00
12:53 PM,55.9,45.0,67,30.27,10.0,Calm,Calm,-,N/A,,Clear,0,2012-11-14 20:53:00
1:53 PM,57.0,45.0,64,30.25,10.0,Calm,Calm,-,N/A,,Clear,0,2012-11-14 21:53:00
2:53 PM,57.0,45.0,64,30.24,10.0,Calm,Calm,-,N/A,,Clear,0,2012-11-14 22:53:00
3:53 PM,55.0,43.0,64,30.25,10.0,Calm,Calm,-,N/A,,Clear,0,2012-11-14 23:53:00
4:53 PM,52.0,43.0,71,30.25,10.0,Calm,Calm,-,N/A,,Clear,0,2012-11-15 00:53:00
5:53 PM,48.9,42.1,77,30.25,10.0,Calm,Calm,-,N/A,,Clear,0,2012-11-15 01:53:00
6:53 PM,46.0,41.0,83,30.28,10.0,ENE,8.1,-,N/A,,Clear,70,2012-11-15 02:53:00
7:41 PM,46.4,41.0,81,30.29,10.0,Calm,Calm,-,N/A,,Mostly Cloudy,0,2012-11-15 03:41:00
7:53 PM,46.9,42.1,83,30.30,10.0,East,4.6,-,N/A,,Overcast,100,2012-11-15 03:53:00
8:53 PM,48.0,43.0,83,30.31,9.0,East,5.8,-,N/A,,Overcast,100,2012-11-15 04:53:00
9:53 PM,48.0,42.1,80,30.32,7.0,ENE,8.1,-,N/A,,Overcast,70,2012-11-15 05:53:00
10:53 PM,46.9,42.1,83,30.32,8.0,East,10.4,-,N/A,,Overcast,100,2012-11-15 06:53:00
11:53 PM,46.0,41.0,83,30.32,9.0,ESE,11.5,-,N/A,,Overcast,110,2012-11-15 07:53:00